Tracking 29892 objects as of 21-Nov-2024
HD Live streaming from Space Station
objects crossing your sky now

ONEWEB-0376

Track ONEWEB-0376 now!
10-day predictions
ONEWEB-0376 is classified as:


NORAD ID: 49302
Int'l Code: 2021-090Z
Perigee: 1,191.6 km
Apogee: 1,194.3 km
Inclination: 87.9 °
Period: 109.1 minutes
Semi major axis: 7563 km
RCS: Unknown
Launch date: October 14, 2021
Source: United Kingdom (UK)
Launch site: VOSTOCHNY COSMODROME (VOSTO)
Your satellite tracking list
STARLINK-2363
Track 1 satellite(s)




NASA's NSSDC Master Catalog

Two Line Element Set (TLE):
1 49302U 21090Z   24325.25515885  .00000040  00000-0  67427-4 0  9999
2 49302  87.9185  59.0866 0001806  92.9557 267.1783 13.19723092150753
Source of the keplerian elements: AFSPC